SKW4057 KPHX-KLAX

Flight info

Callsign SKW4057
Flight time 1h 5m
Altitude 26000
Route KEENS3 WLVRN ESTWD HLYWD1
Aircraft E75L/M-SDE3GILORVW/S

Departure

Time 2026-04-26 16:03
Airport Phoenix Sky Harbor International Airport (KPHX)

Arrival

Time 2026-04-26 17:09
Airport Los Angeles International Airport (KLAX)
Time Latitude Longitude Altitude Speed Heading
2026-04-26 15:28 33.43743 -111.99876 1132 ft 0 kts 270°
2026-04-26 15:52 33.43743 -111.99875 1132 ft 1 kts 270°
2026-04-26 15:52 33.43743 -111.99857 1132 ft 2 kts 274°
2026-04-26 15:52 33.43738 -111.99841 1132 ft 2 kts 309°
2026-04-26 15:52 33.43731 -111.99834 1132 ft 2 kts 330°
2026-04-26 15:53 33.43715 -111.99829 1132 ft 0 kts 360°
2026-04-26 15:56 33.43716 -111.99829 1132 ft 0 kts 360°
2026-04-26 15:56 33.43725 -111.99829 1132 ft 2 kts 359°
2026-04-26 15:57 33.43736 -111.99829 1132 ft 3 kts 360°
2026-04-26 15:57 33.43780 -111.99829 1132 ft 8 kts 359°
2026-04-26 15:57 33.43847 -111.99831 1133 ft 9 kts
2026-04-26 15:57 33.43885 -111.99845 1133 ft 3 kts 316°
2026-04-26 15:58 33.43894 -111.99846 1133 ft 2 kts 28°
2026-04-26 15:58 33.43898 -111.99822 1133 ft 4 kts 82°
2026-04-26 15:58 33.43902 -111.99765 1134 ft 9 kts 90°
2026-04-26 15:58 33.43902 -111.99669 1134 ft 13 kts 89°
2026-04-26 15:59 33.43902 -111.99539 1134 ft 18 kts 91°
2026-04-26 15:59 33.43902 -111.99411 1134 ft 15 kts 90°
2026-04-26 15:59 33.43898 -111.99265 1135 ft 18 kts 111°
2026-04-26 15:59 33.43797 -111.99229 1134 ft 18 kts 180°
2026-04-26 16:00 33.43650 -111.99229 1132 ft 23 kts 180°
2026-04-26 16:00 33.43495 -111.99228 1131 ft 0 kts 177°
2026-04-26 16:00 33.43492 -111.99228 1131 ft 1 kts 181°
2026-04-26 16:01 33.43461 -111.99229 1131 ft 7 kts 180°
2026-04-26 16:01 33.43386 -111.99229 1130 ft 14 kts 180°
2026-04-26 16:01 33.43310 -111.99229 1129 ft 8 kts 180°
2026-04-26 16:01 33.43248 -111.99231 1129 ft 9 kts 191°
2026-04-26 16:02 33.43193 -111.99279 1128 ft 10 kts 223°
2026-04-26 16:02 33.43140 -111.99343 1128 ft 11 kts 226°
2026-04-26 16:02 33.43103 -111.99422 1128 ft 10 kts 276°
2026-04-26 16:02 33.43103 -111.99436 1128 ft 1 kts 266°
2026-04-26 16:03 33.43103 -111.99795 1127 ft 73 kts 270°
2026-04-26 16:03 33.43104 -112.00644 1128 ft 128 kts 270°
2026-04-26 16:03 33.43118 -112.01850 1268 ft 155 kts 270°
2026-04-26 16:03 33.43188 -112.03136 1763 ft 161 kts 277°
2026-04-26 16:04 33.43464 -112.04533 2051 ft 182 kts 286°
2026-04-26 16:04 33.43644 -112.05205 2402 ft 181 kts 288°
2026-04-26 16:05 33.44125 -112.06552 2778 ft 203 kts 297°
2026-04-26 16:05 33.45013 -112.08010 3206 ft 227 kts 307°
2026-04-26 16:05 33.45650 -112.09722 3583 ft 233 kts 271°
2026-04-26 16:06 33.45222 -112.11644 4043 ft 249 kts 235°
2026-04-26 16:06 33.43969 -112.13102 4544 ft 257 kts 221°
2026-04-26 16:06 33.42598 -112.14450 4999 ft 258 kts 221°
2026-04-26 16:06 33.41278 -112.15884 5456 ft 256 kts 230°
2026-04-26 16:07 33.40228 -112.17625 5928 ft 256 kts 239°
2026-04-26 16:07 33.39436 -112.19543 6380 ft 259 kts 256°
2026-04-26 16:07 33.39443 -112.21697 6881 ft 264 kts 275°
2026-04-26 16:07 33.39716 -112.23856 7351 ft 265 kts 276°
2026-04-26 16:08 33.40015 -112.26028 7816 ft 266 kts 276°
2026-04-26 16:08 33.40223 -112.27482 8131 ft 267 kts 276°
2026-04-26 16:08 33.40645 -112.30376 8752 ft 269 kts 276°
2026-04-26 16:08 33.40969 -112.32580 9224 ft 271 kts 276°
2026-04-26 16:09 33.41301 -112.34822 9706 ft 271 kts 275°
2026-04-26 16:09 33.41629 -112.37044 10181 ft 273 kts 276°
2026-04-26 16:09 33.41959 -112.39279 10672 ft 276 kts 276°
2026-04-26 16:09 33.42297 -112.41570 11172 ft 283 kts 276°
2026-04-26 16:10 33.42639 -112.43890 11683 ft 288 kts 276°
2026-04-26 16:10 33.42991 -112.46280 12201 ft 295 kts 276°
2026-04-26 16:10 33.43350 -112.48714 12735 ft 299 kts 276°
2026-04-26 16:10 33.43707 -112.51146 13259 ft 299 kts 276°
2026-04-26 16:11 33.44065 -112.53585 13779 ft 299 kts 276°
2026-04-26 16:11 33.44426 -112.56044 14300 ft 300 kts 276°
2026-04-26 16:11 33.44783 -112.58484 14813 ft 298 kts 275°
2026-04-26 16:11 33.45025 -112.60946 15324 ft 296 kts 268°
2026-04-26 16:12 33.45061 -112.63394 15835 ft 296 kts 267°
2026-04-26 16:12 33.45094 -112.65855 16347 ft 297 kts 267°
2026-04-26 16:12 33.45160 -112.70762 17387 ft 297 kts 266°
2026-04-26 16:13 33.45192 -112.73247 17919 ft 299 kts 267°
2026-04-26 16:13 33.45224 -112.75703 18443 ft 298 kts 266°
2026-04-26 16:13 33.45255 -112.78165 18975 ft 299 kts 266°
2026-04-26 16:13 33.45545 -112.80656 19521 ft 310 kts 283°
2026-04-26 16:14 33.46354 -112.83040 20113 ft 312 kts 284°
2026-04-26 16:14 33.47199 -112.85458 20684 ft 314 kts 284°
2026-04-26 16:14 33.48883 -112.90265 21821 ft 315 kts 284°
2026-04-26 16:15 33.49724 -112.92667 22390 ft 314 kts 284°
2026-04-26 16:15 33.50565 -112.95068 22941 ft 314 kts 283°
2026-04-26 16:15 33.51399 -112.97458 23506 ft 313 kts 283°
2026-04-26 16:16 33.53076 -113.02257 24641 ft 311 kts 283°
2026-04-26 16:16 33.53908 -113.04643 25204 ft 310 kts 282°
2026-04-26 16:16 33.54730 -113.06999 25744 ft 309 kts 282°
2026-04-26 16:16 33.55564 -113.09403 25893 ft 319 kts 282°
2026-04-26 16:17 33.56427 -113.11889 25923 ft 332 kts 283°
2026-04-26 16:17 33.57338 -113.14507 25924 ft 344 kts 283°
2026-04-26 16:17 33.58274 -113.17199 25931 ft 354 kts 283°
2026-04-26 16:17 33.59226 -113.19938 25920 ft 360 kts 283°
2026-04-26 16:18 33.60177 -113.22674 25909 ft 360 kts 283°
2026-04-26 16:18 33.62092 -113.28198 25906 ft 357 kts 283°
2026-04-26 16:19 33.63990 -113.33686 25893 ft 358 kts 283°
2026-04-26 16:19 33.64934 -113.36418 25903 ft 358 kts 284°
2026-04-26 16:19 33.66535 -113.41058 25896 ft 357 kts 284°
2026-04-26 16:20 33.67791 -113.44699 25892 ft 356 kts 283°
2026-04-26 16:20 33.69688 -113.50214 25889 ft 358 kts 284°
2026-04-26 16:20 33.70634 -113.52966 25888 ft 359 kts 284°
2026-04-26 16:21 33.71580 -113.55721 25891 ft 357 kts 284°
2026-04-26 16:21 33.72521 -113.58463 25888 ft 356 kts 284°
2026-04-26 16:21 33.73463 -113.61214 25891 ft 360 kts 284°
2026-04-26 16:21 33.74408 -113.63972 25886 ft 358 kts 284°
2026-04-26 16:22 33.75364 -113.66767 25897 ft 358 kts 284°
2026-04-26 16:22 33.76302 -113.69510 25900 ft 357 kts 283°
2026-04-26 16:22 33.77245 -113.72271 25903 ft 356 kts 284°
2026-04-26 16:22 33.78189 -113.75035 25897 ft 356 kts 283°
2026-04-26 16:23 33.79127 -113.77786 25897 ft 358 kts 283°
2026-04-26 16:23 33.80067 -113.80546 25915 ft 357 kts 284°
2026-04-26 16:23 33.81006 -113.83303 25909 ft 355 kts 284°
2026-04-26 16:23 33.81939 -113.86038 25903 ft 356 kts 283°
2026-04-26 16:24 33.82886 -113.88826 25906 ft 359 kts 283°
2026-04-26 16:24 33.83824 -113.91587 25907 ft 356 kts 284°
2026-04-26 16:24 33.84759 -113.94340 25906 ft 358 kts 283°
2026-04-26 16:24 33.85692 -113.97090 25893 ft 358 kts 284°
2026-04-26 16:25 33.86624 -113.99839 25897 ft 356 kts 284°
2026-04-26 16:25 33.87560 -114.02601 25900 ft 357 kts 284°
2026-04-26 16:25 33.88500 -114.05383 25892 ft 358 kts 284°
2026-04-26 16:25 33.89441 -114.08163 25897 ft 358 kts 283°
2026-04-26 16:26 33.90354 -114.10907 25893 ft 355 kts 281°
2026-04-26 16:26 33.90761 -114.12824 25897 ft 350 kts 276°
2026-04-26 16:26 33.91417 -114.16641 25888 ft 350 kts 275°
2026-04-26 16:26 33.91906 -114.19506 25889 ft 350 kts 275°
2026-04-26 16:27 33.92398 -114.22399 25892 ft 351 kts 275°
2026-04-26 16:27 33.92888 -114.25283 25890 ft 352 kts 275°
2026-04-26 16:27 33.93377 -114.28165 25885 ft 352 kts 275°
2026-04-26 16:27 33.93868 -114.31067 25895 ft 352 kts 275°
2026-04-26 16:28 33.94353 -114.33945 25892 ft 353 kts 275°
2026-04-26 16:28 33.94840 -114.36828 25894 ft 351 kts 276°
2026-04-26 16:28 33.95327 -114.39715 25897 ft 352 kts 275°
2026-04-26 16:28 33.95811 -114.42592 25898 ft 352 kts 276°
2026-04-26 16:29 33.96296 -114.45480 25898 ft 354 kts 276°
2026-04-26 16:29 33.96785 -114.48396 25896 ft 354 kts 275°
2026-04-26 16:29 33.97271 -114.51295 25899 ft 352 kts 276°
2026-04-26 16:29 33.97754 -114.54187 25901 ft 356 kts 275°
2026-04-26 16:30 33.98241 -114.57102 25898 ft 357 kts 275°
2026-04-26 16:30 33.98728 -114.60027 25904 ft 356 kts 276°
2026-04-26 16:30 33.99213 -114.62940 25892 ft 355 kts 276°
2026-04-26 16:30 33.99704 -114.65894 25909 ft 357 kts 275°
2026-04-26 16:31 34.00189 -114.68821 25922 ft 358 kts 275°
2026-04-26 16:31 34.00675 -114.71747 25904 ft 358 kts 275°
2026-04-26 16:31 34.01160 -114.74680 25918 ft 359 kts 275°
2026-04-26 16:31 34.01646 -114.77627 25906 ft 360 kts 275°
2026-04-26 16:32 34.02128 -114.80544 25904 ft 359 kts 275°
2026-04-26 16:32 34.02457 -114.82542 25900 ft 360 kts 276°
2026-04-26 16:32 34.03098 -114.86439 25899 ft 358 kts 276°
2026-04-26 16:32 34.03587 -114.89418 25894 ft 359 kts 276°
2026-04-26 16:33 34.04069 -114.92363 25904 ft 361 kts 275°
2026-04-26 16:33 34.04551 -114.95309 25899 ft 361 kts 276°
2026-04-26 16:33 34.05038 -114.98290 25893 ft 362 kts 276°
2026-04-26 16:33 34.05522 -115.01253 25892 ft 362 kts 276°
2026-04-26 16:34 34.06006 -115.04221 25894 ft 359 kts 276°
2026-04-26 16:34 34.06486 -115.07168 25890 ft 362 kts 276°
2026-04-26 16:34 34.06972 -115.10145 25889 ft 363 kts 276°
2026-04-26 16:34 34.07452 -115.13105 25893 ft 363 kts 276°
2026-04-26 16:35 34.07934 -115.16070 25896 ft 360 kts 276°
2026-04-26 16:35 34.08418 -115.19063 25899 ft 364 kts 276°
2026-04-26 16:35 34.08900 -115.22035 25892 ft 364 kts 276°
2026-04-26 16:35 34.09381 -115.25018 25894 ft 366 kts 276°
2026-04-26 16:36 34.09866 -115.28019 25887 ft 364 kts 276°
2026-04-26 16:36 34.10351 -115.31036 25888 ft 364 kts 276°
2026-04-26 16:36 34.10836 -115.34052 25891 ft 367 kts 276°
2026-04-26 16:36 34.11321 -115.37077 25885 ft 367 kts 276°
2026-04-26 16:37 34.11809 -115.40123 25876 ft 367 kts 276°
2026-04-26 16:37 34.12293 -115.43148 25885 ft 367 kts 276°
2026-04-26 16:37 34.12781 -115.46204 25883 ft 366 kts 276°
2026-04-26 16:37 34.13107 -115.48248 25883 ft 367 kts 276°
2026-04-26 16:38 34.13742 -115.52238 25890 ft 368 kts 276°
2026-04-26 16:38 34.14225 -115.55278 25887 ft 368 kts 276°
2026-04-26 16:38 34.14711 -115.58340 25887 ft 369 kts 276°
2026-04-26 16:38 34.15195 -115.61398 25888 ft 371 kts 277°
2026-04-26 16:39 34.15677 -115.64448 25879 ft 372 kts 277°
2026-04-26 16:39 34.16161 -115.67526 25890 ft 369 kts 275°
2026-04-26 16:39 34.16201 -115.70583 25911 ft 365 kts 262°
2026-04-26 16:39 34.15928 -115.73618 25900 ft 365 kts 262°
2026-04-26 16:40 34.15637 -115.76695 25896 ft 365 kts 262°
2026-04-26 16:40 34.15346 -115.79737 25905 ft 364 kts 262°
2026-04-26 16:40 34.15053 -115.82779 25902 ft 366 kts 262°
2026-04-26 16:40 34.14757 -115.85840 25897 ft 365 kts 261°
2026-04-26 16:41 34.14458 -115.88913 25901 ft 368 kts 262°
2026-04-26 16:41 34.14158 -115.91994 25900 ft 369 kts 261°
2026-04-26 16:41 34.13860 -115.95049 25901 ft 369 kts 262°
2026-04-26 16:41 34.13554 -115.98184 25897 ft 369 kts 261°
2026-04-26 16:42 34.13248 -116.01308 25907 ft 369 kts 262°
2026-04-26 16:42 34.12947 -116.04385 25904 ft 367 kts 262°
2026-04-26 16:42 34.12645 -116.07460 25902 ft 368 kts 262°
2026-04-26 16:42 34.12337 -116.10602 25905 ft 368 kts 262°
2026-04-26 16:43 34.12114 -116.12862 25904 ft 369 kts 261°
2026-04-26 16:43 34.11805 -116.15987 25916 ft 368 kts 261°
2026-04-26 16:43 34.11502 -116.19052 25915 ft 367 kts 261°
2026-04-26 16:43 34.11198 -116.22111 25918 ft 368 kts 262°
2026-04-26 16:44 34.10893 -116.25170 25904 ft 369 kts 262°
2026-04-26 16:44 34.10740 -116.26707 25905 ft 370 kts 262°
2026-04-26 16:44 34.10437 -116.29733 25914 ft 369 kts 262°
2026-04-26 16:44 34.10108 -116.32845 25913 ft 369 kts 262°
2026-04-26 16:45 34.09780 -116.35927 25909 ft 362 kts 262°
2026-04-26 16:45 34.09460 -116.38924 25867 ft 350 kts 261°
2026-04-26 16:45 34.09156 -116.41775 25500 ft 336 kts 261°
2026-04-26 16:45 34.08860 -116.44527 24755 ft 333 kts 262°
2026-04-26 16:46 34.08566 -116.47261 24673 ft 324 kts 262°
2026-04-26 16:46 34.08269 -116.50016 24708 ft 339 kts 262°
2026-04-26 16:46 34.07953 -116.52944 24730 ft 353 kts 262°
2026-04-26 16:46 34.07635 -116.55888 24699 ft 356 kts 262°
2026-04-26 16:47 34.07317 -116.58847 24414 ft 357 kts 263°
2026-04-26 16:47 34.07041 -116.61818 24083 ft 357 kts 263°
2026-04-26 16:47 34.06767 -116.64782 23693 ft 356 kts 264°
2026-04-26 16:47 34.06491 -116.67749 23308 ft 354 kts 263°
2026-04-26 16:48 34.06220 -116.70667 22917 ft 352 kts 263°
2026-04-26 16:48 34.05947 -116.73599 22517 ft 350 kts 263°
2026-04-26 16:48 34.05678 -116.76476 22139 ft 346 kts 263°
2026-04-26 16:48 34.05409 -116.79347 21759 ft 345 kts 263°
2026-04-26 16:49 34.05139 -116.82221 21379 ft 344 kts 263°
2026-04-26 16:49 34.04870 -116.85074 21017 ft 343 kts 263°
2026-04-26 16:49 34.04601 -116.87927 20631 ft 342 kts 263°
2026-04-26 16:49 34.04269 -116.90736 20271 ft 341 kts 262°
2026-04-26 16:50 34.03910 -116.93515 19919 ft 337 kts 261°
2026-04-26 16:50 34.03548 -116.96309 19536 ft 336 kts 262°
2026-04-26 16:50 34.03189 -116.99076 19177 ft 335 kts 262°
2026-04-26 16:50 34.02831 -117.01833 18802 ft 334 kts 262°
2026-04-26 16:51 34.02491 -117.04590 18473 ft 330 kts 263°
2026-04-26 16:51 34.02169 -117.07308 18124 ft 329 kts 263°
2026-04-26 16:51 34.01849 -117.10017 17776 ft 328 kts 262°
2026-04-26 16:51 34.01528 -117.12721 17414 ft 327 kts 263°
2026-04-26 16:52 34.01207 -117.15419 17053 ft 326 kts 263°
2026-04-26 16:52 34.00993 -117.17222 16813 ft 324 kts 263°
2026-04-26 16:52 34.00571 -117.20756 16344 ft 320 kts 263°
2026-04-26 16:52 34.00256 -117.23390 16020 ft 321 kts 263°
2026-04-26 16:53 33.99937 -117.26051 15688 ft 319 kts 263°
2026-04-26 16:53 33.99621 -117.28690 15342 ft 316 kts 263°
2026-04-26 16:53 33.99310 -117.31287 15038 ft 310 kts 263°
2026-04-26 16:53 33.99012 -117.33832 14741 ft 303 kts 263°
2026-04-26 16:54 33.98717 -117.36339 14420 ft 300 kts 264°
2026-04-26 16:54 33.98426 -117.38810 14094 ft 299 kts 264°
2026-04-26 16:54 33.98134 -117.41291 13766 ft 300 kts 264°
2026-04-26 16:54 33.97841 -117.43777 13430 ft 297 kts 264°
2026-04-26 16:55 33.97553 -117.46210 13105 ft 296 kts 264°
2026-04-26 16:55 33.97344 -117.48669 12767 ft 294 kts 275°
2026-04-26 16:55 33.97787 -117.51059 12535 ft 292 kts 285°
2026-04-26 16:55 33.98337 -117.53423 12207 ft 294 kts 285°
2026-04-26 16:56 33.99445 -117.58140 11550 ft 292 kts 286°
2026-04-26 16:56 34.00001 -117.60500 11226 ft 291 kts 285°
2026-04-26 16:56 34.00546 -117.62809 10907 ft 287 kts 285°
2026-04-26 16:57 34.01086 -117.65102 10589 ft 279 kts 285°
2026-04-26 16:57 34.01614 -117.67347 10287 ft 273 kts 285°
2026-04-26 16:57 34.02002 -117.71725 9754 ft 263 kts 264°
2026-04-26 16:58 34.01799 -117.73915 9465 ft 263 kts 264°
2026-04-26 16:58 34.01663 -117.75358 9274 ft 263 kts 264°
2026-04-26 16:58 34.01174 -117.80445 8645 ft 262 kts 264°
2026-04-26 16:59 34.00962 -117.82626 8355 ft 262 kts 264°
2026-04-26 16:59 34.00537 -117.86980 7825 ft 260 kts 264°
2026-04-26 17:00 34.00110 -117.91328 7259 ft 260 kts 264°
2026-04-26 17:00 33.99690 -117.95614 6687 ft 255 kts 264°
2026-04-26 17:00 33.99491 -117.97679 6362 ft 239 kts 264°
2026-04-26 17:01 33.99309 -117.99590 6078 ft 225 kts 264°
2026-04-26 17:01 33.99134 -118.01395 5879 ft 212 kts 264°
2026-04-26 17:01 33.98962 -118.03159 5683 ft 210 kts 264°
2026-04-26 17:01 33.98790 -118.04900 5449 ft 210 kts 264°
2026-04-26 17:02 33.98615 -118.06666 5216 ft 212 kts 264°
2026-04-26 17:02 33.98441 -118.08423 4980 ft 212 kts 264°
2026-04-26 17:02 33.98263 -118.10198 4739 ft 211 kts 264°
2026-04-26 17:02 33.98087 -118.11953 4500 ft 211 kts 264°
2026-04-26 17:03 33.97913 -118.13681 4246 ft 198 kts 264°
2026-04-26 17:03 33.97757 -118.15237 3975 ft 179 kts 264°
2026-04-26 17:03 33.97611 -118.16682 3935 ft 170 kts 264°
2026-04-26 17:03 33.97465 -118.18135 3791 ft 175 kts 264°
2026-04-26 17:04 33.97318 -118.19594 3553 ft 177 kts 264°
2026-04-26 17:04 33.97171 -118.21047 3309 ft 177 kts 264°
2026-04-26 17:04 33.97020 -118.22532 3059 ft 176 kts 264°
2026-04-26 17:04 33.96874 -118.23979 2817 ft 176 kts 264°
2026-04-26 17:05 33.96724 -118.25452 2570 ft 176 kts 264°
2026-04-26 17:05 33.96582 -118.26843 2315 ft 157 kts 264°
2026-04-26 17:05 33.96452 -118.28082 2085 ft 140 kts 263°
2026-04-26 17:05 33.96340 -118.29177 1888 ft 128 kts 263°
2026-04-26 17:06 33.96234 -118.30228 1733 ft 126 kts 263°
2026-04-26 17:06 33.96125 -118.31278 1587 ft 128 kts 263°
2026-04-26 17:06 33.96016 -118.32356 1426 ft 129 kts 263°
2026-04-26 17:06 33.95907 -118.33428 1255 ft 129 kts 263°
2026-04-26 17:07 33.95792 -118.34500 1087 ft 130 kts 263°
2026-04-26 17:07 33.95655 -118.35578 979 ft 129 kts 261°
2026-04-26 17:07 33.95533 -118.36654 920 ft 134 kts 263°
2026-04-26 17:07 33.95424 -118.37772 852 ft 130 kts 265°
2026-04-26 17:08 33.95338 -118.38847 560 ft 129 kts 264°
2026-04-26 17:08 33.95232 -118.39932 234 ft 132 kts 263°
2026-04-26 17:08 33.95126 -118.40990 123 ft 117 kts 264°
2026-04-26 17:08 33.95050 -118.41774 121 ft 70 kts 263°
2026-04-26 17:09 33.94962 -118.42166 118 ft 27 kts 233°
2026-04-26 17:09 33.94878 -118.42269 116 ft 17 kts 214°
2026-04-26 17:09 33.94756 -118.42283 116 ft 8 kts 175°
2026-04-26 17:09 33.94725 -118.42279 115 ft 0 kts 174°
2026-04-26 17:10 33.94695 -118.42273 115 ft 8 kts 167°
2026-04-26 17:10 33.94680 -118.42266 115 ft 1 kts 128°
2026-04-26 17:10 33.94682 -118.42228 115 ft 8 kts 81°
2026-04-26 17:10 33.94695 -118.42123 117 ft 16 kts 83°
2026-04-26 17:11 33.94710 -118.41980 118 ft 16 kts 83°
2026-04-26 17:11 33.94724 -118.41839 119 ft 17 kts 83°
2026-04-26 17:11 33.94740 -118.41695 120 ft 17 kts 82°
2026-04-26 17:11 33.94754 -118.41550 121 ft 17 kts 82°
2026-04-26 17:12 33.94796 -118.41271 122 ft 17 kts 83°
2026-04-26 17:12 33.94811 -118.41126 122 ft 17 kts 83°
2026-04-26 17:13 33.94842 -118.40817 122 ft 19 kts 81°
2026-04-26 17:13 33.94860 -118.40653 121 ft 15 kts 84°
2026-04-26 17:13 33.94736 -118.40580 121 ft 6 kts 173°
2026-04-26 17:14 33.94691 -118.40573 121 ft 6 kts 172°
2026-04-26 17:14 33.94625 -118.40524 121 ft 4 kts 91°
2026-04-26 17:14 33.94623 -118.40486 120 ft 3 kts 93°
2026-04-26 17:15 33.94623 -118.40478 120 ft 0 kts 93°